Flag for U.S.A. Weather past 2 weeks in Oklahoma City, Oklahoma, U.S.A.

49 °F


Feels Like: 47 °F
Forecast: 51 / 78 °F
Wind: 5 mph from Southwest

Location: Will Rogers World Airport

Current Time: Oct 10, 2015 at 6:28:36 AM

Latest Report: Oct 10, 2015 at 5:52 AM

Visibility: 2 mi

Pressure: 30.23 "Hg

Humidity: 97%

Dew point: 48 °F

Location of Oklahoma CityLocation

Historic Weather in Oklahoma City — Graph


Oklahoma City temperature yesterday

Maximum temperature yesterday: 72 °F (at 2:52 PM)
Minimum temperature yesterday: 59 °F (at 11:52 PM)
Average temperature yesterday: 66 °F

Past Weeks' High & Low Weather Summary

High88 °F (Sep 25, 3:52 PM)97% (Oct 6, 3:52 AM)30.27 "Hg (Oct 6, 3:52 AM)
Low50 °F (Oct 3, 6:52 AM)32% (Sep 28, 4:52 PM)29.83 "Hg (Sep 28, 3:52 PM)
Average68 °F67%30.05 "Hg
* Reported Sep 25 4:52 AM — Oct 10 4:52 AM, Oklahoma City, Weather by CustomWeather, © 2015

Note: Actual official high and low records may vary slightly from our data, if they occured in-between our weather recording intervals... More about our weather records


Oklahoma City weather history for previous 24 hours

Time TempWeatherWind HumidityBarometerVisibility
4:52 AM
Sat, Oct 10
51 °FPassing clouds.No wind92%30.21 "Hg10 mi
3:52 AM53 °FPassing clouds.3 mph86%30.20 "Hg10 mi
2:52 AM59 °FPassing clouds.3 mph78%30.20 "Hg10 mi
1:52 AM62 °FPassing clouds.12 mph65%30.20 "Hg10 mi
12:52 AM58 °FPassing clouds.3 mph84%30.23 "Hg10 mi
11:52 PM
Fri, Oct 9
59 °FPassing clouds.6 mph84%30.23 "Hg10 mi
10:52 PM61 °FPassing clouds.5 mph78%30.24 "Hg10 mi
9:52 PM63 °FPassing clouds.No wind73%30.22 "Hg10 mi
8:52 PM65 °FPassing clouds.7 mph68%30.22 "Hg10 mi
7:52 PM66 °FPartly sunny.6 mph65%30.19 "Hg10 mi
6:52 PM67 °FPartly sunny.5 mph63%30.19 "Hg10 mi
5:52 PM69 °FScattered clouds.9 mph59%30.20 "Hg10 mi
4:52 PM72 °FScattered clouds.13 mph52%30.20 "Hg10 mi
3:52 PM72 °FScattered clouds.14 mph55%30.20 "Hg10 mi
2:52 PM72 °FBroken clouds.14 mph57%30.22 "Hg10 mi
1:59 PM69 °FBroken clouds.12 mph66%30.27 "Hg10 mi
12:52 PM65 °FOvercast.13 mph85%30.26 "Hg10 mi
11:52 AM64 °FMostly cloudy.8 mph90%30.26 "Hg10 mi
10:52 AM63 °FLight rain. More clouds than sun.7 mph90%30.26 "Hg10 mi
9:52 AM62 °FRain. Fog.12 mph93%30.24 "Hg5 mi
8:52 AM64 °FLight rain. Overcast.15 mph94%30.22 "Hg10 mi
7:52 AM65 °FLight rain. Mostly cloudy.8 mph94%30.19 "Hg10 mi
6:52 AM67 °FPartly cloudy.15 mph81%30.14 "Hg10 mi
Weather by CustomWeather, © 2015

See weather overviewHow to use our weather pages